W2SRH Weather Reports


time (UTC)temp
F
wind
direction
speed
knots
gust
knots
rain 1hr
in
rain 24hr
in
rain mn
in
humidity
%
barometer
mb
20260505124905 67 252 1.7 7.8 0.00 0.00 0.00 50 1003.1
20260505123904 67 245 2.6 9.6 0.00 0.00 0.00 51 1003.0
20260505122905 66 247 1.7 7.0 0.00 0.00 0.00 52 1002.9
20260505121904 66 210 1.7 8.7 0.00 0.00 0.00 53 1002.9
20260505120905 65 255 1.7 7.0 0.00 0.00 0.00 53 1002.9
20260505115904 65 301 1.7 4.3 0.00 0.00 0.00 54 1002.8
20260505114904 65 279 1.7 7.0 0.00 0.00 0.00 55 1002.8
20260505113906 64 168 0.9 4.3 0.00 0.00 0.00 56 1002.7
20260505112904 64 234 0.9 2.6 0.00 0.00 0.00 58 1002.5
20260505111905 63 262 1.7 4.3 0.00 0.00 0.00 59 1002.6
20260505110913 63 288 0.9 3.5 0.00 0.00 0.00 59 1002.6
20260505101905 60 216 0.0 2.6 0.00 0.00 0.00 66 1002.3
20260505100910 59 168 0.0 1.7 0.00 0.00 0.00 67 1002.0
20260505095905 59 141 0.0 0.9 0.00 0.00 0.00 67 1001.9
20260505094906 59 145 0.0 0.9 0.00 0.00 0.00 68 1001.8
20260505093905 59 150 0.0 1.7 0.00 0.00 0.00 69 1001.8
20260505092904 58 147 0.0 0.9 0.00 0.00 0.00 71 1001.9
20260505091904 57 145 0.0 0.9 0.00 0.00 0.00 71 1001.8
20260505090904 57 165 0.0 1.7 0.00 0.00 0.00 71 1001.7
20260505085904 58 0 0.0 0.9 0.00 0.00 0.00 70 1001.9
20260505084903 58 0 0.0 0.9 0.00 0.00 0.00 69 1001.8
20260505083904 58 238 0.0 1.7 0.00 0.00 0.00 68 1001.8
20260505082905 59 200 0.0 0.9 0.00 0.00 0.00 67 1001.8
20260505081905 60 0 0.0 0.9 0.00 0.00 0.00 65 1001.9
20260505080904 60 0 0.0 0.0 0.00 0.00 0.00 64 1001.9
20260505075904 61 290 0.0 1.7 0.00 0.00 0.00 64 1001.9
20260505074905 60 279 0.0 1.7 0.00 0.00 0.00 64 1001.9
20260505073906 60 179 0.0 1.7 0.00 0.00 0.00 64 1001.9
20260505072905 60 147 0.0 1.7 0.00 0.00 0.00 63 1001.8
20260505071912 60 174 0.0 3.5 0.00 0.00 0.00 63 1001.8
20260505070905 60 146 0.0 1.7 0.00 0.00 0.00 63 1001.9
20260505065905 60 167 0.0 0.9 0.00 0.00 0.00 62 1001.7
20260505064905 60 157 0.0 1.7 0.00 0.00 0.00 62 1001.5
20260505063905 60 223 0.0 1.7 0.00 0.00 0.00 62 1001.6
20260505062904 59 162 0.0 1.7 0.00 0.00 0.00 63 1001.7
20260505061905 59 158 0.0 0.9 0.00 0.00 0.00 63 1001.7
20260505060904 59 152 0.0 0.9 0.00 0.00 0.00 63 1001.9
20260505055904 59 152 0.0 0.9 0.00 0.00 0.00 63 1001.7
20260505054908 59 265 0.0 1.7 0.00 0.00 0.00 63 1001.8
20260505053905 59 163 0.0 0.9 0.00 0.00 0.00 63 1001.9
20260505052904 59 161 0.0 2.6 0.00 0.00 0.00 63 1001.9
20260505051904 58 155 0.0 0.9 0.00 0.00 0.00 64 1002.0
20260505050903 58 0 0.0 0.9 0.00 0.00 0.00 64 1002.0
20260505040904 59 0 0.0 0.0 0.00 0.00 0.00 58 1002.0
20260505035904 59 154 0.0 0.9 0.00 0.00 0.00 57 1002.0
20260505034904 59 153 0.0 0.9 0.00 0.00 0.00 55 1002.1
20260505033904 60 153 0.0 0.9 0.00 0.00 0.00 54 1002.0
20260505032905 60 174 0.0 1.7 0.00 0.00 0.00 52 1002.1
20260505031905 60 170 0.0 1.7 0.00 0.00 0.00 51 1002.1
20260505030905 61 174 0.0 0.9 0.00 0.00 0.00 50 1002.2
20260505025904 61 157 0.0 1.7 0.00 0.00 0.00 49 1002.3
20260505024903 61 163 0.0 2.6 0.00 0.00 0.00 48 1002.4
20260505023903 62 163 0.0 1.7 0.00 0.00 0.00 47 1002.3
20260505022903 62 160 0.0 0.9 0.00 0.00 0.00 46 1002.3
20260505021903 63 177 0.9 2.6 0.00 0.00 0.00 45 1002.4
20260505020903 63 191 0.0 2.6 0.00 0.00 0.00 44 1002.4
20260505015908 64 165 0.0 1.7 0.00 0.00 0.00 43 1002.3
20260505014957 64 169 0.0 2.6 0.00 0.00 0.00 42 1002.3
20260505014904 64 169 0.0 2.6 0.00 0.00 0.00 42 1002.3
20260505013903 64 183 0.9 3.5 0.00 0.00 0.00 42 1002.3
20260505012903 64 162 0.0 0.9 0.00 0.00 0.00 42 1002.2
20260505011904 65 161 0.0 0.9 0.00 0.00 0.00 41 1002.1
20260505010958 65 159 0.0 1.7 0.00 0.00 0.00 40 1002.0
20260505010904 65 159 0.0 1.7 0.00 0.00 0.00 40 1002.0
20260505005905 66 153 0.0 1.7 0.00 0.00 0.00 39 1001.8
20260505004905 66 166 0.0 1.7 0.00 0.00 0.00 39 1001.6
20260505003905 67 151 0.0 1.7 0.00 0.00 0.00 37 1001.6
20260505002905 67 155 0.0 0.9 0.00 0.00 0.00 36 1001.4
20260505001904 68 135 0.0 1.7 0.00 0.00 0.00 35 1001.4
20260505000906 68 238 0.9 4.3 0.00 0.00 0.00 35 1001.3
20260504235904 69 162 0.0 0.9 0.00 0.00 0.00 34 1001.4
20260504234903 70 151 0.0 1.7 0.00 0.00 0.00 32 1001.2
20260504233904 70 216 0.9 7.8 0.00 0.00 0.00 32 1001.2
20260504232904 71 216 1.7 5.2 0.00 0.00 0.00 31 1001.1
20260504231910 71 224 1.7 4.3 0.00 0.00 0.00 31 1001.0
20260504231333 72 221 0.9 4.3 0.00 0.00 0.00 30 1001.0
20260504230903 72 273 3.5 7.0 0.00 0.00 0.00 30 1001.0
20260504225903 72 213 0.0 1.7 0.00 0.00 0.00 30 1001.1
20260504224905 72 221 0.9 4.3 0.00 0.00 0.00 30 1001.0
20260504223903 73 237 1.7 9.6 0.00 0.00 0.00 29 1001.0
20260504222904 72 277 2.6 13.0 0.00 0.00 0.00 29 1001.1
20260504221903 73 224 1.7 9.6 0.00 0.00 0.00 29 1001.1
20260504220905 73 276 2.6 7.8 0.00 0.00 0.00 29 1001.1
20260504215906 74 248 3.5 8.7 0.00 0.00 0.00 28 1001.2
20260504214905 74 212 0.9 3.5 0.00 0.00 0.00 28 1001.3
20260504213905 73 212 0.9 7.0 0.00 0.00 0.00 28 1001.3
20260504213734 74 252 0.9 5.2 0.00 0.00 0.00 28 1001.3
20260504212906 74 287 2.6 7.0 0.00 0.00 0.00 28 1001.4
20260504211905 74 252 0.9 5.2 0.00 0.00 0.00 28 1001.3
20260504210905 73 266 3.5 8.7 0.00 0.00 0.00 28 1001.4
20260504210530 73 247 1.7 5.2 0.00 0.00 0.00 28 1001.5
20260504205904 73 267 3.5 9.6 0.00 0.00 0.00 27 1001.4
20260504204938 74 258 2.6 7.0 0.00 0.00 0.00 27 1001.4
20260504204905 74 258 2.6 7.0 0.00 0.00 0.00 27 1001.4
20260504203904 73 247 1.7 5.2 0.00 0.00 0.00 28 1001.5
20260504202904 74 267 2.6 10.4 0.00 0.00 0.00 27 1001.4
20260504201903 73 176 1.7 4.3 0.00 0.00 0.00 27 1001.3
20260504200904 73 295 2.6 10.4 0.00 0.00 0.00 27 1001.6
20260504195904 73 275 3.5 10.4 0.00 0.00 0.00 27 1001.6
20260504194904 72 274 4.3 9.6 0.00 0.00 0.00 27 1001.6
20260504193903 73 286 2.6 7.0 0.00 0.00 0.00 27 1001.7
20260504192909 73 249 1.7 5.2 0.00 0.00 0.00 27 1001.8
20260504191905 73 260 2.6 9.6 0.00 0.00 0.00 27 1001.9
20260504190905 72 249 3.5 7.8 0.00 0.00 0.00 27 1002.0
20260504185905 72 211 1.7 7.8 0.00 0.00 0.00 27 1002.0
20260504184904 72 211 1.7 7.8 0.00 0.00 0.00 27 1002.5
20260504183905 72 254 2.6 7.0 0.00 0.00 0.00 27 1002.4
20260504182905 71 274 2.6 9.6 0.00 0.00 0.00 27 1002.6
20260504181905 72 280 3.5 9.6 0.00 0.00 0.00 27 1002.8
20260504180904 72 194 0.9 4.3 0.00 0.00 0.00 28 1002.8
20260504175904 71 277 2.6 8.7 0.00 0.00 0.00 27 1003.0
20260504174906 70 244 4.3 11.3 0.00 0.00 0.00 27 1003.2
20260504173903 70 285 3.5 11.3 0.00 0.00 0.00 28 1003.2
20260504172906 70 231 2.6 7.8 0.00 0.00 0.00 29 1003.4
20260504171904 69 270 1.7 12.2 0.00 0.00 0.00 30 1003.5
20260504170907 69 254 1.7 9.6 0.00 0.00 0.00 31 1003.6
20260504150904 65 235 1.7 11.3 0.00 0.00 0.00 38 1005.0
20260504140904 61 171 0.9 7.8 0.00 0.00 0.00 49 1005.3